Flag for Poland Weather past 2 weeks in Olsztyn, Poland

Now
59 °F

Overcast.


Feels Like: 59 °F
Forecast: 50 / 67 °F
Wind: 2 mph from Northeast

Location: Ketrzyn

Current Time: Sep 1, 2014 at 9:16:33 PM

Latest Report: Sep 1, 2014 at 8:00 PM


Visibility: 25 mi

Pressure: 30.09 "Hg

Humidity: 65%

Dew point: 47 °F

Location of OlsztynLocation

Historic Weather in Olsztyn — Graph

°F

Olsztyn temperature yesterday

Maximum temperature yesterday: 66 °F (at 4:00 PM)
Minimum temperature yesterday: 50 °F (at 4:00 AM)
Average temperature yesterday: 58 °F

Past Weeks' High & Low Weather Summary

 TemperatureHumidityPressure
High71 °F (Aug 18, 2:00 PM)99% (Aug 29, 6:00 AM)30.09 "Hg (Aug 29, 6:00 AM)
Low46 °F (Aug 27, 3:00 AM)38% (Aug 28, 4:00 PM)29.63 "Hg (Aug 18, 6:00 PM)
Average58 °F74%29.88 "Hg
* Reported Aug 17 7:00 PM — Sep 1 7:00 PM, Olsztyn, Weather by CustomWeather, © 2014

Note: Actual official high and low records may vary slightly from our data, if they occured in-between our weather recording intervals... More about our weather records

Advertising

Olsztyn weather history for previous 24 hours

 ConditionsComfort  
Time TempWeatherWind HumidityBarometerVisibility
7:00 PM
Sep 1
61 °FOvercast.2 mph59%30.08 "Hg19 mi
6:00 PM63 °FPartly sunny.2 mph55%30.08 "Hg22 mi
5:00 PM65 °FPartly sunny.3 mph54%30.07 "Hg28 mi
4:00 PM64 °FPartly sunny.3 mph52%30.08 "Hg25 mi
3:00 PM64 °FPartly sunny.3 mph53%30.08 "Hg25 mi
2:00 PM65 °FPartly sunny.5 mph51%30.08 "Hg19 mi
1:00 PM63 °FPartly sunny.5 mph59%30.07 "Hg22 mi
12:00 PM61 °FPartly sunny.5 mph63%30.08 "Hg22 mi
11:00 AM59 °FPartly sunny.6 mph65%30.09 "Hg19 mi
10:00 AM57 °FPartly sunny.6 mph72%30.08 "Hg25 mi
9:00 AM54 °FOvercast.5 mph80%30.07 "Hg25 mi
8:00 AM54 °FOvercast.3 mph83%30.07 "Hg22 mi
7:00 AM52 °FPartly sunny.2 mph87%30.05 "Hg19 mi
6:00 AM51 °FPartly sunny.3 mph88%30.05 "Hg31 mi
5:00 AM50 °FPassing clouds.3 mph88%30.03 "Hg31 mi
4:00 AM51 °FPassing clouds.3 mph88%30.03 "Hg31 mi
3:00 AM52 °FPassing clouds.3 mph86%30.02 "Hg31 mi
2:00 AM53 °FPassing clouds.3 mph85%30.03 "Hg31 mi
1:00 AM54 °FPassing clouds.3 mph85%30.01 "Hg25 mi
12:00 AM55 °FPassing clouds.5 mph84%30.01 "Hg31 mi
11:00 PM
Aug 31
56 °FPassing clouds.3 mph82%30.00 "Hg31 mi
10:00 PM58 °FPassing clouds.5 mph79%29.99 "Hg28 mi
9:00 PM59 °FPassing clouds.3 mph78%29.98 "Hg12 mi
Weather by CustomWeather, © 2014

See weather overviewHow to use our weather pages